Hooper Bay, AK

7:34 PM AKST on November 21, 2019 (GMT -0900)
Hooper Bay

Weather History for PAHP - October, 2019

Change the Weather History Date:

Tuesday, October 15, 2019

  Actual Average Record
Temperature  
Mean Temperature 38 °F -  
Max Temperature 42 °F 33 °F 51 °F (2007)
Min Temperature 35 °F 26 °F 17 °F (2008)
Degree Days  
Heating Degree Days 26    
Moisture  
Dew Point 35 °F    
Average Humidity 88    
Maximum Humidity 93    
Minimum Humidity 73    
Precipitation  
Precipitation 0.01 in - - ()
Sea Level Pressure  
Sea Level Pressure 29.12 in    
Wind  
Wind Speed 24 mph (SE)    
Max Wind Speed 32 mph    
Max Gust Speed 40 mph    
Visibility 8 miles    
Events Rain    
Averages and records for this station are not official NWS values.
T = Trace of Precipitation, MM = Missing Value Source: NWS Daily Summary

Daily Weather History Graph

Daily Weather History Graph

Search for Another Location

Airport or City:

Astronomy

Oct. 15, 2019 Rise Set
Actual Time 9:47 AM AKDT 7:51 PM AKDT
Civil Twilight 9:03 AM AKDT 8:35 PM AKDT
Nautical Twilight 8:12 AM AKDT 9:26 PM AKDT
Astronomical Twilight 7:21 AM AKDT 10:17 PM AKDT
Moon 8:52 PM AKDT (10/15) 11:51 AM AKDT (10/15)
Length of Visible Light 11h 32m
Length of Day
10h 03m
Waning Gibbous, 96% of the Moon is Illuminated
Oct 15
Waning Gibbous
Oct 21
Last Quarter
Oct 27
New
Nov 4
First Quarter
Nov 12
Full

Hourly Weather History & Observations

Time (AKDT) Temp. Windchill Dew Point Humidity Pressure Visibility Wind Dir Wind Speed Gust Speed Precip Events Conditions
12:56 AM 37.9 °F 25.9 °F 34.0 °F 86% 29.10 in 10.0 mi East 28.8 mph 39.1 mph N/A   Overcast
1:27 AM 37.4 °F 25.0 °F 33.8 °F 87% 29.09 in 10.0 mi East 29.9 mph 38.0 mph N/A   Mostly Cloudy
1:56 AM 37.9 °F 25.7 °F 33.1 °F 83% 29.09 in 10.0 mi East 29.9 mph 36.8 mph N/A   Mostly Cloudy
2:56 AM 37.9 °F 25.5 °F 32.0 °F 79% 29.08 in 10.0 mi East 31.1 mph 39.1 mph N/A   Overcast
3:56 AM 37.9 °F 25.3 °F 33.1 °F 83% 29.08 in 10.0 mi East 32.2 mph 40.3 mph N/A   Overcast
4:56 AM 37.9 °F 25.9 °F 33.1 °F 83% 29.08 in 10.0 mi ESE 28.8 mph 35.7 mph N/A   Overcast
5:56 AM 37.0 °F 24.9 °F 32.0 °F 82% 29.08 in 10.0 mi ESE 27.6 mph 33.4 mph N/A   Overcast
6:56 AM 36.0 °F 23.9 °F 30.9 °F 82% 29.07 in 10.0 mi East 25.3 mph - N/A   Overcast
7:56 AM 36.0 °F 23.2 °F 32.0 °F 86% 29.08 in 10.0 mi ESE 28.8 mph 33.4 mph N/A   Overcast
8:17 AM 35.6 °F 23.0 °F 32.0 °F 87% 29.08 in 10.0 mi ESE 27.6 mph 34.5 mph N/A   Mostly Cloudy
8:40 AM 35.6 °F 22.7 °F 33.8 °F 93% 29.09 in 10.0 mi ESE 28.8 mph 34.5 mph N/A   Overcast
8:56 AM 36.0 °F 22.8 °F 32.0 °F 86% 29.09 in 10.0 mi ESE 31.1 mph 35.7 mph N/A   Mostly Cloudy
9:07 AM 35.6 °F 22.5 °F 32.0 °F 87% 29.08 in 10.0 mi ESE 29.9 mph 36.8 mph N/A   Scattered Clouds
9:49 AM 35.6 °F 22.5 °F 32.0 °F 87% 29.09 in 10.0 mi ESE 29.9 mph 36.8 mph N/A   Mostly Cloudy
9:56 AM 36.0 °F 23.2 °F 33.1 °F 89% 29.09 in 10.0 mi ESE 28.8 mph 35.7 mph N/A   Mostly Cloudy
10:14 AM 35.6 °F 22.7 °F 33.8 °F 93% 29.09 in 10.0 mi ESE 28.8 mph 34.5 mph N/A   Mostly Cloudy
10:56 AM 36.0 °F 23.5 °F 34.0 °F 93% 29.10 in 10.0 mi ESE 27.6 mph 33.4 mph N/A   Overcast
11:56 AM 36.0 °F 23.5 °F 34.0 °F 93% 29.11 in 10.0 mi ESE 27.6 mph - N/A   Overcast
12:41 PM 37.4 °F 26.6 °F 35.6 °F 93% 29.12 in 10.0 mi ESE 21.9 mph - N/A   Mostly Cloudy
12:53 PM 37.4 °F 26.4 °F 35.6 °F 93% 29.12 in 10.0 mi ESE 23.0 mph 28.8 mph N/A   Scattered Clouds
12:56 PM 37.0 °F 26.2 °F 35.1 °F 93% 29.12 in 10.0 mi ESE 21.9 mph - N/A   Scattered Clouds
1:12 PM 37.4 °F 26.4 °F 35.6 °F 93% 29.12 in 10.0 mi ESE 23.0 mph 28.8 mph N/A   Mostly Cloudy
1:33 PM 37.4 °F 26.1 °F 35.6 °F 93% 29.12 in 10.0 mi ESE 24.2 mph 28.8 mph N/A   Mostly Cloudy
1:56 PM 39.0 °F 28.8 °F 37.0 °F 93% 29.13 in 10.0 mi ESE 21.9 mph - N/A   Mostly Cloudy
2:24 PM 37.4 °F 26.6 °F 35.6 °F 93% 29.11 in 10.0 mi ESE 21.9 mph - N/A   Mostly Cloudy
2:56 PM 39.0 °F 29.3 °F 37.0 °F 93% 29.13 in 10.0 mi ESE 19.6 mph - N/A   Overcast
3:56 PM 39.9 °F 30.8 °F 37.9 °F 93% 29.13 in 8.0 mi ESE 18.4 mph - N/A Rain Light Rain
4:05 PM 39.2 °F 30.5 °F 37.4 °F 93% 29.13 in 9.0 mi ESE 16.1 mph - 0.00 in Rain Light Rain
4:27 PM 39.2 °F 33.0 °F 37.4 °F 93% 29.14 in 2.5 mi SE 9.2 mph - 0.00 in Rain Light Rain
4:36 PM 42.8 °F 37.0 °F 41.0 °F 93% 29.16 in 4.0 mi SSW 10.4 mph - 0.00 in Rain Light Rain
4:56 PM 42.1 °F 37.1 °F 39.9 °F 92% 29.16 in 4.0 mi SSW 8.1 mph - 0.00 in Rain Light Rain
5:56 PM 42.1 °F 34.2 °F 39.0 °F 89% 29.15 in 6.0 mi WSW 16.1 mph 25.3 mph 0.00 in Rain Light Rain
6:15 PM 42.8 °F 36.6 °F 37.4 °F 81% 29.16 in 5.0 mi SW 11.5 mph - 0.00 in   Overcast
6:56 PM 42.1 °F 35.2 °F 37.9 °F 85% 29.16 in 6.0 mi SW 12.7 mph - 0.00 in   Overcast
7:56 PM 42.1 °F 35.7 °F 37.0 °F 82% 29.17 in 4.0 mi SW 11.5 mph - 0.01 in   Haze
8:08 PM 42.8 °F 38.0 °F 37.4 °F 81% 29.17 in 4.0 mi SW 8.1 mph - 0.00 in Rain Light Rain
8:16 PM 42.8 °F 36.2 °F 37.4 °F 81% 29.17 in 4.0 mi SW 12.7 mph - 0.00 in Rain Light Rain
8:56 PM 41.0 °F 33.9 °F 37.0 °F 86% 29.17 in 5.0 mi SSW 12.7 mph - 0.00 in   Overcast
9:35 PM 41.0 °F 35.8 °F 35.6 °F 81% 29.17 in 5.0 mi South 8.1 mph - 0.00 in   Haze
9:56 PM 41.0 °F 34.7 °F 37.0 °F 86% 29.17 in 5.0 mi South 10.4 mph - 0.00 in   Overcast
10:56 PM 39.9 °F 34.5 °F 37.0 °F 89% 29.17 in 4.0 mi South 8.1 mph - N/A   Mostly Cloudy
11:29 PM 39.2 °F 31.6 °F 37.4 °F 93% 29.15 in 2.5 mi SSE 12.7 mph - N/A   Overcast
11:38 PM 39.2 °F 29.3 °F 33.8 °F 81% 29.15 in 6.0 mi South 20.7 mph 28.8 mph N/A   Haze
11:56 PM 39.9 °F 31.4 °F 32.0 °F 73% 29.15 in 10.0 mi SSE 16.1 mph - N/A   Overcast